Presure
146 172 133 154 125 139 151 136 185 139 188 119 174 153 168 136 152 147 145 103 163 104 141 147 148 129 152 137 131 159 156 140 146 141 144 130 150 126 148 117 123 132 122 123 128
166 156 131 173 137 137 123 132 192 140 141 133 148 163 164 117 156 119 144 118 132 147 154 144 147 155 150 132 150 149 142 138 156 159 167 152 155 152 157 157 170 147 117 127 136
166 140 126 122 123 145 132 193 149 133 211 174 187 150 149 171 134 166 148 150 133 96 143 161 154 172 157 144 131 150 150 143 141 157 140 151 154 155 156 156 135 148 159 164 115
140 139 166 152 129 119 134 163 132 173 191 146 141 136 141 159 157 163 152 154 99 155 147 151 145 120 150 149 147 170 163 131 153 149 152 149 141 164 159 139 156 157 134 130 127
115 144 154 170 151 176 135 173 132 179 163 160 154 147 150 158 173 126 153 159 131 96 142 129 129 154 155 142 143 136 147 147 147 144 139 154 147 145 146 153 160 144 144 139 119
176 124 179 160 179 140 136 128 141 124 163 136 149 206 169 132 141 156 155 158 139 144 95 131 120 145 153 149 141 148 151 150 145 149 155 142 171 154 147 154 153 155 157 145 135
186 156 110 178 169 171 132 181 126 128 126 126 189 195 135 150 131 153 143 162 158 156 147 144 141 146 141 119 155 97 137 151 151 158 155 152 133 160 170 153 159 148 153 155 165
206 193 197 193 162 176 174 131 175 172 188 138 146 162 139 144 153 167 158 149 150 95 134 156 96 95 105 155 148 154 96 119 130 166 161 144 165 147 159 165 171 156 153 145 155
222 206 192 110 195 190 166 178 165 126 149 162 176 143 141 152 148 138 173 139 148 167 148 148 158 159 89 97 90 94 98 93 118 153 133 168 154 150 151 155 159 156 159 155 152
217 220 206 197 141 127 127 119 124 126 175 144 172 164 188 174 161 138 126 155 190 136 147 146 142 90 165 111 168 92 118 122 161 155 153 151 166 159 149 143 160 163 149 160 168
235 221 214 210 179 181 112 195 121 194 179 130 133 164 174 170 150 183 174 131 156 171 133 161 136 168 84 146 96 170 97 158 160 163 145 160 141 160 157 155 128 164 154 164 168
273 269 220 212 204 194 186 197 170 158 182 124 169 147 176 130 172 199 189 142 135 150 155 172 177 161 154 167 153 130 141 147 127 147 140 117 144 138 127 170 169 174 177 174 149
230 254 280 222 210 213 199 191 178 121 190 193 165 174 169 132 128 153 131 140 178 152 144 148 142 121 156 177 157 141 157 137 145 135 115 143 149 143 158 142 154 167 155 156 165
276 227 241 275 225 203 213 202 197 162 117 172 191 152 166 108 159 175 127 174 171 149 198 173 172 129 136 127 141 155 173 138 157 137 129 140 145 136 144 141 152 149 129 157 142
298 278 227 232 279 227 194 204 214 204 198 191 138 150 191 189 135 124 183 148 178 178 156 159 133 90 161 150 119 153 185 181 164 141 152 155 148 154 141 146 129 154 132 132 135
228 289 124 226 229 269 247 214 212 228 205 197 162 115 173 140 182 179 185 182 191 156 154 139 169 180 178 173 179 157 148 146 141 158 175 163 174 78 151 167 160 136 159 129 133
208 218 241 259 225 228 256 290 216 220 209 228 201 177 185 185 191 172 184 182 192 188 150 187 177 180 185 162 161 177 156 149 149 155 153 184 157 154 126 164 172 165 160 139 168
278 222 277 239 251 227 223 264 269 220 209 209 205 212 178 177 176 205 100 117 186 191 188 190 190 173 186 168 171 184 188 174 159 160 158 165 162 162 167 165 171 177 176 168 178
237 235 174 274 265 247 229 228 264 276 245 205 207 203 208 215 212 172 222 198 187 187 191 189 174 165 176 189 197 195 185 157 186 180 180 184 155 175 181 152 156 167 163 157 153
305 287 246 202 269 257 245 226 195 224 268 283 228 201 195 206 207 196 187 208 213 137 190 193 191 180 183 180 191 202 193 170 164 190 162 181 195 189 192 192 185 181 154 186 183
340 298 249 236 191 220 259 243 249 231 225 250 298 269 212 203 196 202 209 198 196 204 193 194 195 186 187 185 191 199 203 188 197 189 186 182 172 165 179 159 148 167 168 194 191
359 305 269 266 172 263 267 254 224 227 215 220 228 257 261 279 221 205 187 194 208 186 190 187 195 211 206 201 211 202 184 201 213 198 187 151 177 168 166 163 152 153 156 144 149
311 305 271 268 261 232 242 259 252 245 235 244 228 220 263 262 270 285 238 215 195 203 207 206 197 198 207 189 204 196 203 194 210 209 202 196 177 178 179 185 149 158 158 161 159
322 137 271 262 252 211 256 240 247 248 245 251 228 218 211 218 237 257 269 282 296 213 197 201 199 204 193 188 182 185 196 219 198 208 206 198 193 153 163 161 158 154 158 158 126
303 308 289 270 270 261 220 247 164 180 254 266 268 236 234 226 217 221 238 251 258 300 302 307 290 206 211 207 192 193 196 201 209 198 203 202 209 160 168 184 196 134 155 160 161
309 298 289 274 276 263 253 234 258 244 231 243 256 215 271 262 244 207 212 214 231 243 249 296 293 292 291 295 221 204 207 188 191 195 191 199 198 202 207 212 157 164 152 200 197
301 285 280 274 271 262 245 240 225 224 226 200 188 207 233 238 209 212 210 208 218 229 229 236 233 286 205 287 293 293 285 243 216 207 212 206 203 193 153 159 151 152 172 170 195
Wind_Speed
54 68 61 58 49 51 51 44 50 45 57 36 55 50 52 38 45 43 41 23 41 20 32 38 32 17 34 18 15 25 24 11 15 12 16 22 14 24 16 24 24 20 23 21 18
69 66 55 59 52 51 49 44 56 47 48 45 49 52 52 34 50 36 42 29 34 37 35 37 38 40 36 15 29 27 17 12 27 27 25 22 24 20 21 19 20 18 27 23 21
76 64 59 54 55 57 57 60 62 48 61 69 55 51 48 58 42 51 48 45 36 20 36 45 42 38 39 32 17 35 29 23 20 29 18 25 26 26 26 23 24 20 23 22 28
64 69 75 63 62 54 59 58 50 55 61 54 50 49 47 52 52 53 49 50 28 44 42 42 40 25 42 37 31 38 39 20 35 31 31 27 16 36 30 28 26 25 26 28 32
66 76 69 85 74 85 62 72 57 63 61 63 57 54 55 57 59 42 48 51 41 26 42 33 36 46 47 39 40 23 36 33 34 31 18 34 28 24 25 27 29 28 27 28 37
95 74 99 82 95 72 67 60 59 52 69 54 63 69 66 48 49 56 54 53 45 45 23 34 32 41 48 47 34 41 43 40 31 35 42 25 41 35 29 32 30 32 32 30 32
100 91 57 100 91 89 69 88 62 59 57 51 77 74 54 52 50 58 50 59 53 53 51 46 42 45 41 33 51 17 25 41 44 47 44 42 23 44 40 38 37 30 32 34 36
112 109 110 106 90 96 91 70 86 79 87 67 63 69 60 51 65 67 56 52 50 33 42 54 27 25 30 53 48 53 19 31 29 49 49 33 49 34 42 43 39 40 37 31 35
113 113 110 61 110 108 92 94 86 66 71 79 79 65 59 70 65 52 63 51 54 65 53 48 53 53 21 25 20 24 24 20 26 45 39 51 45 42 41 41 42 41 43 42 37
111 113 114 114 83 76 77 66 71 69 87 72 81 77 97 86 74 57 49 62 76 49 51 52 49 25 61 34 59 24 37 37 54 48 48 44 54 51 44 35 46 46 43 48 49
118 116 114 117 104 105 65 110 73 105 96 79 73 81 82 79 70 90 77 52 61 70 53 65 47 71 20 51 32 55 28 58 56 54 41 53 37 55 54 53 39 52 46 52 54
107 114 118 116 116 113 106 108 101 94 101 68 87 72 87 63 80 94 91 60 56 62 60 70 73 70 53 61 57 42 49 53 37 50 40 40 44 36 46 63 61 59 58 55 46
104 107 108 121 117 117 111 113 104 78 107 107 89 90 86 64 61 70 57 62 81 66 59 62 64 36 57 71 62 51 59 47 47 38 42 46 54 43 55 46 54 59 47 52 55
111 105 107 107 122 110 112 117 118 102 64 91 101 87 84 51 76 83 61 83 79 67 88 77 78 51 54 51 55 61 73 47 57 47 48 49 52 51 46 49 57 54 45 52 48
106 111 107 110 100 118 113 118 120 120 112 107 83 81 101 96 75 62 89 70 83 85 68 71 61 32 66 69 45 65 76 72 62 51 55 61 51 68 49 50 51 60 52 50 51
94 108 72 107 107 96 106 123 120 123 108 107 88 70 90 74 98 91 91 85 92 74 71 66 83 83 82 81 81 67 61 57 51 56 64 67 59 13 73 69 63 54 63 53 55
94 98 104 110 106 105 110 96 121 118 106 109 106 95 100 98 102 90 90 88 94 91 70 89 85 84 84 74 72 81 68 55 54 59 57 73 57 61 58 69 73 71 68 61 72
109 99 107 103 108 112 108 106 109 112 108 106 105 109 96 95 89 105 50 60 93 95 91 90 88 83 88 80 80 81 81 75 66 65 61 68 65 71 72 70 75 77 78 74 78
104 108 81 106 109 111 107 113 103 92 106 106 107 106 106 105 104 91 104 101 95 92 93 91 83 82 82 86 88 86 81 70 79 74 73 75 70 81 81 66 65 72 68 65 67
115 111 107 98 106 110 113 110 85 96 89 86 115 106 104 104 104 101 97 100 102 74 95 93 90 86 85 85 87 88 87 74 68 78 66 73 77 80 80 81 82 81 67 81 82
109 109 102 107 99 102 109 103 90 97 100 93 77 92 109 104 105 102 101 99 100 102 97 93 93 91 89 87 90 89 89 82 84 76 75 73 74 76 77 68 65 73 74 83 84
94 108 107 106 98 106 100 102 98 99 100 91 88 84 86 80 109 106 99 101 101 94 93 91 91 94 94 90 91 89 82 89 89 85 73 65 74 82 76 72 69 69 72 70 71
80 105 109 111 112 104 97 93 93 97 98 88 90 92 74 75 72 67 100 108 101 100 99 98 89 90 91 85 90 86 87 84 87 86 82 80 77 82 79 81 70 73 75 76 78
95 55 112 112 104 92 91 96 93 98 97 90 91 91 85 82 77 70 68 67 65 93 97 95 91 92 91 88 81 80 86 89 82 81 87 82 87 77 77 74 74 73 77 79 60
97 105 115 114 110 102 98 95 72 82 83 74 76 78 78 79 79 77 73 68 67 50 51 53 65 93 95 91 88 86 86 85 82 82 81 88 85 80 78 80 84 65 79 82 83
100 106 112 107 106 101 94 98 86 77 77 80 75 76 61 62 71 84 82 79 75 68 65 44 49 54 60 63 90 86 87 81 81 84 81 84 84 90 85 86 77 80 77 93 93
100 107 110 107 104 100 95 86 98 98 92 86 81 81 79 71 84 82 78 75 69 66 63 61 63 46 70 52 53 53 63 84 85 84 84 84 87 86 76 76 79 80 84 86 91
Wind_Direction
226 246 230 234 239 242 243 238 239 240 228 236 233 235 235 236 233 236 245 241 238 244 260 259 254 245 264 256 232 272 271 273 290 271 265 233 281 236 265 249 225 243 228 233 242
249 248 231 249 234 238 229 237 242 245 240 240 240 234 234 240 238 230 241 248 246 237 247 259 258 254 260 254 272 267 281 272 280 282 274 294 296 269 287 287 293 270 245 258 275
246 225 233 237 238 241 238 236 243 240 233 240 235 239 239 234 241 233 242 245 235 238 254 243 249 246 248 274 235 277 278 278 273 277 257 286 293 296 279 286 246 272 289 290 277
222 243 234 242 239 233 239 237 237 240 238 243 240 243 238 239 240 235 238 239 237 239 243 245 257 236 257 262 255 254 268 239 273 277 279 284 273 281 289 282 287 291 247 247 252
243 230 241 244 240 247 231 238 237 231 239 241 236 241 241 239 237 241 238 236 234 239 253 242 246 249 252 262 264 263 272 263 276 277 264 275 279 280 281 289 291 257 265 259 267
241 231 239 240 239 237 237 230 238 231 236 237 238 240 238 239 244 241 242 240 236 236 235 248 250 257 253 260 261 268 267 270 257 275 277 273 275 282 284 291 287 288 286 274 262
234 240 246 236 244 244 229 240 236 238 232 231 243 245 237 240 241 240 241 240 239 236 247 252 257 248 263 239 260 267 263 269 272 271 273 279 255 279 274 282 280 276 283 284 286
230 234 233 232 242 242 242 230 241 244 243 241 236 244 236 240 241 243 246 241 240 243 247 241 245 248 253 254 262 263 274 269 246 269 269 268 276 281 277 276 274 283 283 272 284
231 230 233 238 234 235 239 240 233 235 238 237 239 238 242 240 239 238 245 240 241 246 244 242 248 247 252 258 268 270 272 285 267 270 275 271 279 278 280 281 277 279 280 281 282
232 230 230 232 240 240 233 240 237 237 240 237 239 239 240 238 240 238 236 241 242 243 242 242 244 250 254 259 247 264 268 271 262 267 270 274 271 273 282 276 276 279 276 281 283
230 232 230 230 236 238 244 234 239 237 236 232 233 236 239 239 241 241 242 240 244 247 242 248 245 252 254 255 264 252 275 257 260 261 267 267 271 275 276 279 272 280 279 281 282
231 232 231 231 231 233 236 233 237 235 238 238 237 237 239 234 239 241 241 241 242 243 245 249 248 249 252 255 252 254 255 258 265 264 265 277 270 259 273 271 277 277 279 281 281
229 232 232 231 232 231 231 233 235 241 236 235 236 239 238 234 234 237 237 242 244 243 243 243 246 249 249 252 253 248 253 256 259 261 272 264 268 267 270 276 279 280 278 280 284
230 228 231 232 231 230 231 232 233 236 238 237 235 237 239 235 240 240 236 239 241 243 247 247 249 245 248 254 252 258 257 255 260 254 258 264 266 265 264 268 274 278 272 280 276
228 229 228 230 230 229 229 232 233 233 234 234 234 240 239 239 239 239 240 240 242 242 245 246 246 255 250 250 262 251 258 260 257 258 264 265 263 271 263 265 267 276 275 273 274
231 227 233 228 229 231 230 231 231 233 231 232 236 247 238 239 242 243 243 242 243 242 241 241 246 248 249 251 253 252 253 254 261 262 264 265 266 309 269 272 272 270 276 275 276
224 225 225 229 226 227 231 230 231 231 232 234 234 235 236 237 240 242 243 245 244 244 245 244 245 248 249 253 252 253 254 255 257 259 257 263 263 261 273 272 274 275 276 279 282
222 226 225 224 228 228 231 233 234 229 229 231 233 236 235 238 238 242 241 246 244 245 244 245 246 248 248 250 252 254 255 254 256 261 263 267 268 266 267 270 274 276 277 279 281
222 223 232 223 222 228 229 233 233 234 233 230 232 233 235 238 239 239 242 242 244 245 247 246 244 247 250 253 255 255 256 255 258 259 259 260 263 265 267 268 270 273 274 278 279
215 219 220 227 222 225 229 230 227 229 233 231 232 231 233 236 237 238 239 241 243 249 245 246 247 249 251 253 256 256 256 256 258 259 261 262 267 266 268 269 270 273 276 277 278
207 213 220 221 225 226 226 229 228 230 229 233 232 233 235 236 236 237 239 240 241 243 244 246 248 248 250 252 254 256 257 260 260 261 261 260 262 267 267 272 274 273 275 276 278
204 207 215 219 229 220 221 226 227 228 228 225 228 231 234 236 238 239 237 239 242 242 243 244 248 252 254 255 255 255 257 258 258 259 259 264 264 263 265 268 272 274 276 279 283
203 202 211 216 220 220 222 222 225 230 231 230 226 228 232 234 238 242 241 241 240 243 244 245 246 249 252 252 255 254 257 260 260 262 264 264 261 262 267 271 272 273 276 279 281
196 246 208 214 216 222 218 222 224 230 234 236 229 227 229 233 236 240 246 248 245 242 244 246 246 248 248 250 253 256 259 259 260 263 261 264 264 263 264 266 270 276 278 278 284
197 196 203 210 211 213 220 219 227 229 233 232 235 233 234 233 233 238 242 245 248 246 248 250 251 248 251 252 252 254 257 259 261 261 263 263 264 262 264 269 272 278 276 278 280
192 196 202 208 210 212 214 219 217 222 226 229 235 226 231 232 234 232 234 237 243 247 251 251 252 253 255 254 254 254 256 258 258 258 259 263 265 266 270 270 271 272 277 275 277
191 197 204 206 208 210 212 211 223 228 231 226 224 222 231 227 228 233 234 238 244 248 251 254 255 255 250 257 256 258 258 256 256 258 260 261 262 266 268 268 270 274 274 278 277